Theta_e
347 347 346 345 344 344 343 342 341 343 343 341 336 331 331 337 341 341 340 341 341 342 342 343 344 344 344 343 343 342 342 343 343 344 344 344 343 343 343 344 344 345 344 344 344 344 344 343 342 341 339 335 333 336 339 340 340 340 341 342 343 343 343 343 343 343 342 342 341 341 340 341 342 343 345 345 347 347 347 346 345 344 344 345 345
346 346 346 345 344 344 344 343 343 343 342 340 336 330 334 340 342 341 341 341 341 342 343 343 344 344 344 344 345 344 344 344 344 344 344 345 345 344 345 345 345 345 344 344 343 343 344 343 342 341 341 337 335 335 337 340 341 341 341 342 342 342 342 342 342 342 341 339 339 339 339 341 343 345 345 346 347 347 347 345 344 344 345 346 345
346 346 346 345 344 344 344 344 344 342 341 340 336 331 336 342 341 341 340 341 342 343 343 343 343 344 344 344 344 344 344 344 344 345 345 345 344 345 345 345 345 344 344 344 343 343 343 343 343 342 341 338 337 336 336 339 341 341 341 341 341 341 341 341 341 340 339 338 337 337 338 340 342 343 344 345 347 347 345 345 345 345 346 346 344
346 346 346 346 345 346 346 344 343 342 341 340 335 332 338 342 340 340 340 341 342 343 343 343 343 343 343 344 344 344 344 345 345 345 345 344 344 344 345 345 345 344 344 344 343 343 343 343 342 343 343 340 337 336 336 339 342 342 341 341 341 341 342 342 340 340 339 338 337 337 337 338 340 342 343 344 345 346 345 345 345 346 346 346 344
346 345 346 346 346 347 346 344 344 343 343 339 333 333 340 341 340 340 340 342 342 343 343 343 343 342 343 343 343 344 345 345 345 344 344 344 345 344 344 344 345 345 344 344 343 343 343 344 343 343 343 342 338 336 335 338 342 342 341 341 341 342 343 342 341 341 341 339 337 337 337 338 339 341 342 343 344 345 344 344 345 346 346 345 345
345 345 344 344 345 346 345 344 344 343 342 336 330 334 340 340 340 340 341 342 343 343 342 342 341 341 342 343 343 344 344 344 344 344 344 344 344 344 344 344 344 345 345 344 344 343 344 344 343 343 343 343 340 336 334 336 341 342 341 341 341 342 343 343 343 342 342 340 339 338 339 338 339 340 341 342 343 344 344 345 345 346 346 345 345
344 344 344 344 344 345 345 344 343 343 339 332 330 337 340 340 340 341 342 342 342 342 342 341 341 341 341 342 343 343 344 344 344 343 344 344 345 344 344 344 345 345 345 344 344 344 344 345 344 344 344 343 341 338 334 332 338 341 340 341 342 342 344 345 344 343 342 342 340 339 339 339 337 338 341 342 342 343 344 345 345 346 345 344 345
344 344 344 344 345 344 344 343 342 341 335 329 333 339 339 340 341 342 343 342 342 342 341 341 341 341 341 342 342 343 343 344 344 343 344 344 344 344 344 345 345 346 345 344 344 344 344 345 345 344 343 342 341 339 335 330 334 339 339 341 342 343 344 344 343 342 342 341 340 339 339 338 337 337 338 340 341 342 343 344 344 345 344 344 344
344 345 344 345 345 343 343 342 342 339 330 329 335 338 339 340 341 341 342 342 342 341 341 341 341 341 342 342 342 342 343 343 342 342 342 343 343 343 343 344 345 345 345 344 344 344 344 344 344 343 342 341 341 339 336 331 330 334 338 340 342 343 344 344 343 341 341 340 339 339 339 339 339 338 338 339 340 341 342 343 344 344 344 344 344
343 345 345 345 344 343 342 342 342 335 327 330 335 337 338 339 340 341 342 342 341 341 341 341 341 341 342 342 342 342 342 342 342 342 342 342 342 342 342 342 344 345 345 344 344 344 344 344 344 344 343 341 341 339 336 333 333 335 339 341 342 342 343 343 343 342 340 340 339 339 339 340 340 340 340 340 340 340 341 342 343 344 344 343 343
344 344 345 345 344 343 343 343 340 331 326 330 333 334 335 337 339 340 341 341 341 341 342 342 342 342 342 343 342 341 342 342 342 342 342 343 343 342 342 341 343 344 345 345 345 344 343 344 344 343 343 342 341 341 336 332 334 339 341 342 341 341 342 342 342 342 341 341 339 338 339 340 341 341 341 341 341 340 340 341 342 343 343 343 343
345 345 345 345 344 343 343 342 337 328 326 329 330 331 334 338 338 340 341 340 341 342 342 343 342 342 342 341 341 341 341 342 342 342 343 345 344 344 343 342 342 342 343 343 344 343 343 344 344 344 343 342 341 341 337 333 333 337 341 342 342 342 341 341 341 341 341 340 338 337 338 339 340 341 341 342 342 341 340 339 339 339 340 340 341
346 344 345 345 343 343 343 341 334 327 327 328 329 330 333 338 339 340 340 339 339 341 342 343 342 341 341 340 340 340 340 340 342 343 344 344 343 343 343 342 342 341 341 342 343 343 344 344 343 343 342 342 341 341 339 335 333 334 339 342 343 343 342 341 341 341 341 340 339 338 338 338 340 341 342 342 342 341 341 340 340 339 339 338 338
345 343 344 344 342 343 343 340 334 327 327 328 328 328 331 336 339 339 338 337 338 340 341 342 341 340 339 339 339 338 339 340 342 343 343 343 342 342 341 341 341 341 341 341 342 342 343 343 343 342 342 341 341 341 340 337 334 334 338 342 342 343 342 341 341 341 340 340 339 339 338 338 338 340 341 341 341 341 341 342 342 341 341 339 339
344 343 343 342 342 344 342 340 333 327 327 327 327 328 330 334 337 338 336 336 336 337 339 341 340 339 338 338 338 339 340 340 341 340 340 340 340 340 339 340 339 340 340 340 340 341 341 341 341 341 341 341 341 341 341 338 337 338 340 342 343 342 342 342 341 341 341 340 340 339 339 338 337 338 339 340 340 341 342 342 342 342 342 342 341
344 343 342 340 342 344 343 341 334 326 327 327 327 328 329 331 335 335 334 334 333 334 337 339 339 337 336 336 337 338 339 340 340 340 340 339 339 338 337 337 338 339 340 339 339 340 340 340 340 340 340 340 341 341 340 339 340 342 343 343 344 343 342 342 342 342 342 341 339 339 340 339 338 338 338 339 340 340 340 340 341 341 342 342 342
344 342 341 339 342 344 344 341 334 327 327 326 326 327 328 329 331 332 333 333 332 332 335 337 337 336 335 335 336 337 338 339 340 340 340 340 340 338 338 337 337 338 338 338 337 338 338 337 338 338 339 339 340 341 340 340 341 344 345 345 344 343 342 340 340 342 342 341 340 339 340 340 340 340 338 338 338 338 337 337 338 339 340 341 341
344 341 339 339 341 344 342 339 332 327 327 327 326 327 327 327 328 330 331 331 331 331 332 335 337 336 334 333 335 336 337 338 338 339 339 339 340 339 339 338 338 338 337 337 336 336 335 334 333 333 335 337 339 340 340 340 340 343 346 346 343 343 341 338 338 340 341 341 340 340 340 340 340 340 339 338 337 336 335 336 337 338 338 339 340
342 340 339 339 340 341 340 336 330 326 327 327 326 327 327 327 327 329 330 330 330 330 331 334 335 336 335 333 333 335 336 337 337 338 338 339 340 339 339 339 339 338 337 337 337 336 335 333 331 329 330 333 336 338 339 340 340 341 344 346 345 344 343 341 339 340 341 340 339 339 340 340 340 340 339 338 337 336 335 334 334 335 336 337 339
341 340 340 340 340 339 336 332 327 326 327 326 326 326 327 327 327 327 328 329 329 329 330 332 334 335 336 335 333 334 334 335 335 336 337 338 339 339 339 340 339 338 338 338 338 338 337 334 334 333 331 330 332 334 337 339 341 342 343 344 345 345 344 343 341 341 341 338 337 339 339 340 339 339 339 337 337 336 335 334 332 331 332 334 335
341 340 340 340 339 337 334 329 326 326 326 327 327 327 327 327 326 326 327 328 329 328 328 331 333 335 337 337 335 334 334 334 335 335 335 335 337 339 339 340 340 339 338 338 339 340 340 339 339 339 336 334 334 334 336 340 342 343 343 343 343 344 345 344 342 342 340 335 334 338 338 339 339 338 337 336 335 335 335 334 333 331 329 330 331
342 341 341 340 339 337 332 328 326 325 326 327 327 327 327 327 327 326 326 327 329 329 328 330 332 335 339 341 339 338 339 339 340 337 334 334 335 336 339 340 340 339 338 339 339 341 344 344 344 343 341 340 340 339 339 340 342 342 343 344 344 345 345 344 343 342 340 333 332 337 338 338 338 337 336 334 334 335 335 335 334 332 330 329 329
343 342 341 340 338 337 332 329 326 325 325 326 327 327 327 327 327 327 327 327 329 331 331 331 332 337 342 342 341 342 343 343 343 341 337 336 335 335 336 340 340 339 339 340 341 343 345 345 345 345 342 341 341 341 341 341 342 341 342 343 344 344 344 343 343 341 339 334 332 336 338 338 338 338 336 335 333 334 336 336 335 334 332 330 329
344 342 342 340 338 337 333 330 328 326 325 325 326 327 327 327 327 327 328 329 331 334 335 334 333 336 341 343 343 344 342 342 343 343 340 338 337 335 336 338 340 341 342 343 344 344 344 345 345 345 344 342 341 341 342 341 341 341 341 342 342 341 341 341 341 340 338 336 333 334 338 338 338 339 338 336 334 333 335 336 336 335 334 333 331
344 344 345 342 339 337 334 332 330 327 326 325 326 326 326 327 327 327 328 331 332 335 337 338 336 337 341 345 344 345 344 341 341 343 343 343 342 340 339 339 340 344 346 346 346 344 343 344 344 344 345 343 342 342 343 342 342 341 342 342 341 341 341 339 340 339 338 337 335 334 336 338 338 339 339 337 335 334 334 336 335 335 335 335 334
346 348 350 345 340 337 335 333 331 329 327 325 326 325 326 326 326 328 329 332 332 334 338 340 340 339 342 345 344 345 347 343 341 344 345 345 346 344 343 342 342 345 346 346 346 345 344 345 345 345 345 345 343 342 343 343 342 341 342 342 341 341 341 339 338 338 338 337 337 337 336 338 338 338 339 338 337 336 335 335 336 335 336 336 335
349 350 351 348 342 337 336 333 331 330 328 327 328 327 326 326 327 330 332 334 334 335 337 340 342 341 344 346 344 346 348 346 345 347 347 347 347 346 345 345 346 346 346 346 346 345 344 344 345 346 345 345 344 342 342 343 342 341 342 342 340 340 341 339 338 337 336 335 335 336 337 338 338 338 338 338 338 337 336 336 336 336 336 337 336
350 350 351 349 343 337 335 333 331 330 328 329 331 330 328 326 329 333 333 334 336 336 337 341 342 341 345 348 346 346 348 348 347 347 348 348 347 348 347 347 348 346 346 346 346 346 344 345 346 347 347 347 345 343 341 342 342 341 342 341 340 339 339 339 339 337 335 333 332 332 335 337 338 339 339 339 339 338 337 337 337 337 336 337 337
350 351 350 349 345 339 335 333 332 330 329 329 331 333 330 327 330 334 334 335 338 339 340 343 344 343 345 348 348 347 349 350 349 347 348 349 348 348 348 347 347 347 348 347 345 346 344 345 346 347 348 348 346 344 342 341 341 342 341 341 340 338 338 338 339 339 337 335 333 330 330 334 337 339 340 340 339 338 338 337 337 337 337 337 337
350 351 350 348 347 343 337 333 332 332 330 330 332 335 333 328 330 335 336 339 343 346 346 347 347 344 343 347 349 349 349 350 350 349 349 350 349 348 348 347 347 348 349 346 344 346 345 345 347 346 347 348 348 346 344 341 341 342 342 341 340 338 338 339 339 340 338 337 337 333 328 330 335 338 340 341 341 340 339 339 338 337 337 337 337
350 350 351 348 346 345 339 333 333 333 332 332 333 336 335 329 331 336 340 345 347 350 350 350 350 345 342 346 350 350 350 350 350 349 350 351 349 347 348 347 347 348 348 346 346 346 345 345 346 346 345 348 348 346 344 342 341 342 342 341 339 338 338 337 339 339 338 337 338 336 330 327 332 337 339 341 342 342 341 340 339 339 338 337 337
352 350 352 349 347 345 340 334 333 333 334 335 334 336 336 333 336 340 342 346 349 351 351 351 350 346 343 344 348 350 350 350 350 351 351 351 348 347 348 348 348 349 347 347 347 346 346 346 345 345 346 348 348 346 344 342 341 341 340 339 338 338 337 337 339 338 337 339 338 337 334 329 330 334 337 339 340 341 342 342 340 340 339 339 338
353 351 352 351 349 346 342 337 334 333 335 336 335 337 338 338 342 343 342 345 349 352 351 350 351 349 347 344 345 348 350 351 350 351 351 350 349 347 348 348 349 349 347 346 345 346 347 347 346 346 347 348 347 346 344 343 341 340 340 339 337 337 338 338 340 338 338 340 339 339 338 335 332 332 334 337 339 340 341 341 341 341 340 339 339
354 353 353 352 351 349 345 341 336 334 335 338 338 339 338 340 344 344 343 343 346 351 351 350 352 351 350 346 344 343 346 350 350 350 350 350 350 348 348 348 348 347 346 344 344 347 348 347 347 346 348 349 347 345 345 343 340 340 341 339 335 335 337 338 339 340 339 340 340 339 340 340 338 333 332 334 337 339 340 340 341 340 340 340 339
354 354 353 352 351 351 348 345 340 336 335 339 341 340 339 340 341 343 345 343 344 348 350 351 352 351 350 346 344 340 340 344 345 346 347 348 350 349 348 349 347 346 346 344 345 347 348 348 347 347 349 349 347 347 346 344 341 340 340 337 334 334 336 338 339 340 340 341 340 340 340 340 339 337 336 335 333 334 337 338 340 340 340 340 340
353 353 354 352 352 352 351 348 344 340 338 340 342 340 340 340 339 343 346 344 344 344 347 351 352 351 349 344 342 339 337 338 337 340 342 344 350 349 348 348 346 346 347 346 345 346 348 349 347 347 349 349 349 349 348 346 342 340 339 337 335 335 338 339 339 339 340 341 341 340 340 339 338 339 340 338 335 333 332 334 338 340 341 340 340
352 353 353 353 353 353 353 351 347 343 341 342 344 343 343 342 339 342 345 345 344 342 346 351 351 349 347 342 340 338 337 336 333 337 339 341 348 350 347 347 346 345 346 346 345 346 349 349 348 347 347 349 350 349 349 346 340 339 341 340 337 336 339 340 339 339 340 340 341 339 339 339 339 339 339 340 339 337 333 331 333 337 339 339 340
351 353 353 353 353 353 353 353 349 346 344 345 348 347 345 345 342 342 344 346 344 343 346 351 351 349 346 341 339 337 336 335 332 333 338 341 345 347 347 347 347 346 346 345 345 348 349 349 349 347 346 349 350 349 348 344 340 340 343 342 339 337 339 339 339 339 339 340 340 339 339 339 339 338 338 340 339 338 337 336 333 333 334 335 337
351 352 353 353 353 353 353 353 351 348 346 348 351 350 348 348 348 347 347 348 347 345 346 350 352 350 347 342 338 337 337 335 331 331 336 341 342 345 348 348 347 347 346 344 345 347 348 348 348 347 346 348 350 350 347 343 342 342 343 343 341 337 336 338 339 339 339 339 340 340 340 339 340 339 336 337 336 336 339 340 337 334 332 332 333
351 351 352 352 353 353 352 353 353 349 348 351 352 351 350 351 351 350 351 350 348 347 348 349 351 351 348 345 340 337 337 334 331 330 333 339 340 342 346 347 346 346 345 344 345 348 349 348 347 346 346 347 348 348 346 344 345 344 342 341 340 337 335 337 339 339 339 340 339 340 340 339 339 339 336 334 334 333 335 339 338 336 333 332 332
351 350 351 352 353 353 352 352 353 350 348 350 352 351 350 351 351 350 350 349 347 349 350 349 350 351 349 348 344 339 337 334 331 331 332 337 339 340 342 344 345 346 345 345 346 349 351 350 348 346 347 348 347 345 343 345 345 344 340 339 339 337 335 337 339 339 340 340 339 339 339 338 338 337 336 335 333 330 331 334 335 334 335 335 334
351 350 350 351 352 352 353 352 353 351 348 348 348 347 347 347 347 347 347 346 344 346 350 350 349 350 350 349 346 342 339 335 333 333 332 334 338 339 339 341 345 346 345 345 346 348 350 349 347 346 347 349 348 344 343 345 344 340 339 339 339 336 335 338 339 339 339 339 339 339 339 338 337 336 336 336 334 328 326 328 327 328 332 335 334
350 350 350 351 351 352 352 352 353 352 350 347 346 344 343 344 344 343 343 342 341 344 348 350 349 349 349 349 348 345 340 336 334 335 335 334 336 338 338 341 345 345 345 345 345 345 347 347 346 346 348 349 348 344 343 345 343 340 341 339 338 336 336 338 340 340 340 339 339 340 339 337 336 336 337 336 335 329 325 326 325 325 328 331 332
351 350 350 351 350 350 351 352 353 352 350 347 345 342 340 343 344 343 342 341 341 342 345 348 350 349 348 347 348 346 342 338 334 334 336 336 336 337 338 341 345 345 345 346 346 344 345 347 346 347 349 350 349 346 344 345 344 341 341 341 338 335 334 337 339 339 339 339 339 339 339 337 336 337 338 336 336 334 330 328 326 326 327 329 329
351 351 351 351 350 350 349 350 352 350 348 346 345 343 342 344 345 345 347 346 345 344 344 345 348 350 349 347 347 345 342 339 335 334 336 335 336 338 339 342 345 346 346 347 347 346 346 348 348 348 349 349 350 346 342 345 345 339 341 342 339 337 335 335 337 338 338 338 339 339 338 338 336 337 338 336 335 335 334 332 328 326 327 327 328
351 351 351 351 351 351 350 349 349 349 348 346 344 343 343 342 343 345 346 348 348 347 343 341 342 346 349 349 347 343 341 338 335 334 335 336 336 337 340 343 347 347 346 346 347 347 347 348 349 349 348 348 351 348 341 344 345 339 339 342 340 340 338 334 335 338 337 338 339 338 338 338 337 336 337 336 335 334 334 333 329 328 329 328 328
352 352 351 352 351 351 351 349 349 349 349 347 345 343 342 341 340 341 342 343 347 347 344 341 339 340 346 348 345 341 338 337 335 334 335 335 335 337 339 343 346 346 346 346 346 347 347 348 349 350 349 347 349 348 345 344 343 338 337 340 341 340 338 334 336 338 337 338 338 338 338 337 337 337 336 335 335 334 334 334 333 333 332 329 328
353 353 353 353 352 351 350 350 349 350 349 347 345 342 341 339 339 340 340 340 345 347 345 345 343 342 344 347 345 340 337 336 335 334 335 335 335 337 338 342 344 345 346 347 346 347 347 348 351 351 350 348 346 347 348 346 343 340 337 339 341 340 338 336 337 337 336 337 338 337 338 337 339 338 335 334 335 335 335 335 336 335 333 331 330
353 353 354 353 352 351 350 351 350 350 349 346 344 342 341 338 337 338 340 340 342 346 348 346 345 346 347 347 346 343 338 337 336 333 334 335 335 336 338 341 344 344 345 346 347 348 347 349 352 351 350 348 344 344 348 347 344 342 338 336 340 341 339 337 339 339 336 337 337 337 338 338 339 339 335 335 337 337 336 336 336 335 334 334 332
353 353 354 354 353 352 351 351 350 349 348 346 344 342 341 339 337 337 338 338 340 345 349 348 345 346 348 348 347 344 340 339 338 335 334 336 336 336 337 340 344 345 344 345 347 349 348 349 351 351 349 347 343 342 344 342 342 343 338 334 338 341 339 339 341 341 337 336 336 337 338 338 338 339 337 337 339 338 336 337 337 336 335 335 334
354 354 354 354 354 353 352 351 350 349 348 347 344 341 340 339 338 336 336 336 336 341 346 346 344 345 348 349 348 345 342 341 342 340 337 337 336 336 336 338 343 346 345 344 347 348 349 350 350 350 349 347 345 342 339 336 339 343 340 335 336 339 339 340 341 341 338 336 335 335 337 339 338 338 338 338 338 338 337 337 338 336 336 336 336
Wind_Speed
26 27 28 29 30 30 29 28 27 27 27 26 25 25 24 23 23 23 23 23 22 22 22 22 22 23 23 23 23 23 23 22 21 21 20 19 19 18 18 17 17 16 16 16 16 16 16 15 15 15 15 15 15 14 14 14 14 14 15 14 14 16 17 18 18 16 15 14 13 12 13 14 14 14 14 13 13 13 13 14 13 13 13 14 14
28 28 29 29 29 30 29 28 27 26 26 24 24 24 23 23 23 22 22 22 22 22 22 22 22 22 22 22 22 22 22 21 21 20 20 19 18 18 17 16 17 16 16 16 15 16 16 15 15 15 15 15 16 15 14 14 15 15 15 15 15 16 17 18 17 16 15 14 13 13 13 13 13 13 12 12 12 12 13 13 13 14 14 14 14
30 29 29 30 30 30 29 29 27 26 25 23 23 23 23 23 22 22 22 22 22 21 21 21 21 22 21 22 21 21 21 20 20 19 19 18 18 18 18 17 17 17 17 16 15 15 15 16 16 16 16 16 16 15 15 15 16 16 16 16 16 17 17 17 16 16 15 15 15 14 13 13 13 12 11 11 12 12 13 13 13 14 15 14 14
31 30 30 30 30 30 29 28 27 26 24 23 22 23 22 22 22 21 21 21 21 21 21 21 21 21 21 21 20 20 20 20 19 19 18 18 17 17 17 17 17 17 17 16 16 15 15 16 16 16 16 16 16 15 15 16 17 17 17 17 17 17 17 16 16 16 15 15 15 15 14 13 12 11 11 11 12 12 13 13 14 15 16 16 16
32 31 30 29 29 29 29 28 26 25 23 23 22 22 22 22 22 21 21 21 21 21 20 21 20 21 20 20 20 19 19 19 19 18 17 17 17 17 16 17 17 17 17 16 16 15 15 16 16 16 16 16 16 15 15 16 17 18 18 17 17 17 16 16 16 16 15 15 15 15 14 13 12 12 12 12 12 13 14 14 14 15 17 17 16
32 31 31 29 28 28 29 27 26 25 23 23 22 22 22 21 21 21 21 21 20 21 20 20 20 20 20 19 19 18 18 18 18 17 17 17 17 17 16 16 16 16 16 16 16 15 15 16 16 16 16 16 15 15 15 16 17 18 18 17 17 17 17 16 16 16 15 14 14 15 15 13 13 13 13 14 13 14 14 14 15 16 17 17 16
31 31 31 30 29 29 28 27 25 24 23 23 22 21 21 21 21 21 21 21 20 20 20 20 19 19 20 19 19 18 18 18 17 17 17 17 17 16 16 16 16 16 16 16 15 15 16 16 16 16 16 15 15 15 16 16 17 18 18 17 17 17 16 16 16 16 15 14 15 15 15 14 13 14 13 14 15 15 15 15 16 16 17 17 16
32 31 31 31 29 29 28 26 25 24 24 23 22 21 21 21 20 21 20 20 20 20 20 19 19 19 19 19 18 18 17 17 17 17 17 17 16 16 16 16 16 15 15 15 15 15 15 15 16 16 16 15 15 16 16 17 17 17 17 15 15 15 15 15 15 16 15 14 15 15 15 14 14 15 13 14 15 16 15 15 16 16 17 16 16
32 30 30 30 29 29 27 26 25 24 24 23 21 21 21 21 20 20 20 20 19 19 19 18 18 18 18 18 18 18 17 17 17 17 17 17 17 16 16 16 16 15 15 15 15 15 15 15 16 16 16 15 15 15 16 16 16 17 16 14 14 14 15 15 15 15 15 15 15 14 14 14 14 15 15 14 14 16 16 15 15 15 16 16 15
32 31 30 29 29 28 27 26 25 24 24 22 21 21 21 21 20 20 19 19 19 19 19 18 18 18 18 17 17 17 17 17 18 18 18 17 17 17 16 16 16 15 15 15 15 15 14 15 15 15 16 15 15 15 16 16 16 16 16 14 14 14 15 15 15 15 15 15 14 14 13 13 14 15 15 15 14 14 14 14 14 14 15 15 14
32 31 30 29 29 27 27 25 24 25 24 22 21 21 21 20 20 19 19 19 19 18 18 19 18 18 18 17 17 17 17 18 18 18 18 18 17 17 17 16 16 16 15 15 15 14 14 14 15 15 15 15 15 15 15 16 16 16 15 15 15 15 14 14 15 15 15 14 14 14 13 13 14 15 15 15 15 14 14 14 14 14 14 13 13
32 31 30 29 29 27 27 25 25 25 24 22 21 21 20 20 19 19 19 18 18 18 18 18 18 18 17 17 17 17 18 18 18 18 18 18 17 17 16 16 16 16 15 15 14 14 14 14 14 15 15 15 15 15 15 16 16 15 15 15 16 16 14 13 14 14 13 13 14 13 13 13 14 15 14 15 15 14 14 14 14 13 12 11 11
32 31 31 30 30 28 27 25 25 25 24 22 21 20 20 19 18 18 18 18 18 18 18 18 18 17 17 16 16 17 17 18 18 18 18 17 17 17 16 16 16 16 15 15 15 15 14 14 15 15 15 14 14 15 15 15 15 15 15 14 15 16 15 13 13 13 12 12 13 13 13 13 14 14 14 14 14 13 13 13 13 13 13 12 11
32 32 31 31 31 28 27 26 25 25 24 22 20 20 19 19 18 17 17 16 17 17 18 18 17 17 16 16 16 17 17 17 18 17 17 17 17 16 16 17 17 16 16 16 16 15 15 14 15 15 15 14 14 15 15 15 15 15 14 14 14 14 14 13 12 12 12 12 13 13 13 13 14 14 14 14 13 13 12 12 12 12 13 13 13
33 33 32 31 31 28 27 25 25 25 23 21 20 19 18 18 17 16 16 15 16 16 17 17 17 16 16 16 16 17 17 17 17 17 17 16 17 17 17 17 17 17 16 16 16 15 15 15 15 14 14 14 14 14 15 15 15 14 13 13 13 13 13 13 11 11 11 12 12 12 12 13 13 13 13 13 13 13 12 12 12 11 12 12 12
33 33 32 31 30 28 27 25 25 25 23 21 19 18 18 17 16 16 15 15 15 15 16 16 16 16 16 16 16 17 17 17 17 16 16 16 16 17 17 18 18 17 16 16 16 16 15 15 14 14 14 13 13 14 14 16 16 14 14 13 13 12 13 12 11 10 10 11 11 11 12 12 13 12 12 12 12 12 12 12 12 11 11 11 11
32 33 32 31 30 28 27 25 25 25 23 21 19 18 17 17 16 15 15 15 15 15 15 15 16 16 16 16 16 16 16 16 15 15 15 15 16 16 17 17 17 17 16 16 16 16 15 15 14 14 14 14 13 13 14 15 16 15 15 14 12 11 11 11 10 10 10 10 10 11 11 12 12 11 11 11 11 11 11 12 12 12 11 11 10
33 33 32 31 29 28 27 26 26 26 23 21 19 18 17 16 15 14 15 15 14 14 14 14 15 15 15 15 16 15 15 15 14 14 15 15 15 15 16 16 16 16 16 16 16 16 15 15 14 14 13 13 14 13 13 14 14 14 15 14 11 11 11 10 10 9 10 10 10 10 10 11 11 11 11 11 11 11 11 11 11 11 11 11 10
33 33 32 31 29 28 28 27 27 26 24 21 20 19 18 16 15 14 15 15 14 14 14 14 14 14 14 15 15 14 14 14 14 14 14 14 14 14 14 14 15 15 15 15 14 14 14 15 15 14 14 13 13 13 13 12 12 13 13 13 11 10 10 10 9 8 9 9 9 9 9 10 10 11 11 11 11 11 11 10 11 11 11 11 10
33 33 32 30 29 28 28 28 27 26 24 22 20 19 18 16 15 14 15 14 14 14 13 13 14 14 14 14 14 13 13 13 13 13 13 13 13 12 12 13 13 13 13 13 13 13 13 13 14 15 15 14 13 13 13 13 13 13 11 11 10 9 9 8 8 8 8 8 8 9 9 10 10 10 11 11 11 10 10 10 10 10 10 10 10
34 33 31 30 29 28 28 28 28 26 24 22 20 19 18 16 15 14 15 14 14 13 13 13 14 14 13 13 13 13 13 12 11 11 12 12 12 11 10 11 11 12 11 11 11 12 12 12 12 14 15 16 15 14 14 14 14 13 10 9 9 9 8 6 7 8 7 6 7 8 9 9 9 10 10 9 9 9 10 10 10 9 9 9 10
34 33 31 30 30 28 27 27 27 26 24 22 20 19 17 16 14 14 14 14 14 14 13 14 13 13 12 12 12 12 12 11 10 10 10 10 11 10 9 9 9 10 10 10 11 11 12 11 11 13 15 16 16 16 15 15 14 12 11 9 9 9 8 6 7 8 7 6 7 8 9 9 9 10 9 8 7 8 9 10 9 10 9 9 10
35 34 32 31 30 28 27 27 27 26 25 22 21 19 17 15 14 13 13 14 14 13 13 13 13 12 11 11 11 12 11 10 10 10 10 9 10 9 8 9 9 9 9 9 10 10 11 10 11 12 14 15 15 15 15 15 14 13 12 11 10 10 9 8 7 7 7 7 7 9 9 9 9 9 8 7 7 7 8 9 9 9 10 9 10
36 35 33 31 30 29 27 26 26 25 25 23 21 19 17 15 14 13 12 12 13 12 12 12 12 11 10 10 11 11 10 9 9 9 9 9 10 9 8 8 8 9 8 8 9 9 10 10 10 11 12 13 14 13 12 13 13 13 13 11 11 11 11 11 8 7 7 7 8 9 9 8 8 8 8 7 6 6 7 8 8 9 9 9 9
36 33 32 31 31 30 27 26 25 25 24 23 22 20 18 16 14 12 11 11 11 11 11 11 11 10 10 10 10 10 9 8 8 8 9 9 9 8 8 8 8 9 8 8 8 8 9 9 10 10 10 12 13 12 10 10 10 11 11 10 10 10 10 11 9 6 7 8 7 8 8 8 8 8 7 7 6 6 6 7 7 8 8 8 8
34 33 32 31 30 30 28 26 25 24 23 22 21 20 18 16 14 12 11 11 11 11 10 10 10 9 9 9 10 10 8 8 9 8 8 9 8 7 7 8 8 8 8 8 8 8 8 9 10 9 10 11 11 11 10 8 8 8 8 7 9 8 7 9 9 7 6 7 7 7 7 8 8 8 7 7 6 6 6 6 6 7 7 8 7
32 33 33 30 30 31 28 27 25 24 23 21 20 19 18 16 13 12 12 11 11 10 10 10 9 9 9 8 10 9 7 8 8 7 6 7 7 7 6 7 8 7 7 8 7 7 8 8 9 8 7 9 9 10 11 9 7 7 6 5 7 6 4 6 8 8 8 7 6 6 6 7 8 8 8 7 7 6 5 5 5 6 6 7 7
31 33 33 30 30 31 29 27 26 24 23 22 20 18 18 16 14 13 12 12 11 10 10 11 9 9 9 9 9 8 6 6 6 6 5 4 5 6 5 5 7 7 7 7 6 7 8 7 8 8 6 6 7 10 12 12 10 8 6 5 4 5 3 4 5 7 9 8 7 5 4 5 7 8 8 7 7 7 5 5 4 5 5 5 6
33 33 33 31 30 31 30 28 26 24 23 22 20 18 17 17 16 13 13 13 11 9 10 11 10 9 9 9 9 7 6 5 4 6 5 3 5 5 4 5 6 6 5 5 5 6 6 6 6 8 6 5 6 9 12 13 12 10 7 7 2 3 3 3 3 5 6 7 7 5 4 3 5 7 8 7 7 7 6 5 4 4 4 4 5
34 33 33 32 31 31 30 29 27 25 24 22 20 19 17 18 17 14 13 12 10 9 8 8 8 9 9 10 11 8 6 6 5 5 4 3 5 5 4 6 5 5 5 5 6 6 6 6 5 6 6 4 5 7 10 12 12 9 8 7 5 3 2 2 3 3 4 5 5 4 4 2 2 5 7 7 7 6 6 6 5 4 4 4 4
34 34 33 33 32 31 31 30 28 26 25 23 21 20 18 18 17 14 13 12 10 10 8 7 8 9 11 12 12 12 9 8 7 5 5 4 4 5 4 5 5 4 4 4 6 6 5 6 4 3 5 5 5 6 8 11 12 9 8 7 6 9 5 2 3 3 3 4 6 4 5 4 1 2 5 6 6 6 6 6 6 5 5 4 4
33 35 33 32 33 32 31 31 30 28 26 24 22 21 19 18 17 14 14 14 13 12 10 10 9 8 11 12 11 12 12 11 9 7 6 5 5 5 3 3 4 3 3 3 4 4 4 5 4 4 5 5 5 6 8 11 12 11 10 9 5 9 8 5 4 3 3 5 7 6 4 4 3 2 3 4 5 6 5 5 5 6 5 5 5
32 33 33 33 33 33 32 31 32 30 27 25 23 21 20 19 18 16 15 16 16 15 13 11 9 8 9 11 12 12 12 13 11 9 7 6 6 5 3 2 1 2 3 3 3 4 5 5 4 4 4 3 5 6 8 9 12 13 11 9 7 7 8 6 6 4 4 5 7 6 4 4 3 2 3 4 5 6 5 5 5 5 6 5 6
31 32 33 33 33 33 32 32 32 31 29 26 23 22 22 21 19 18 16 16 17 16 14 12 11 11 10 10 13 13 12 13 11 10 9 7 7 5 4 2 2 1 2 3 3 4 5 5 4 4 4 4 5 7 8 8 13 14 11 8 10 9 6 4 7 6 5 5 6 6 4 4 3 2 2 3 4 5 5 5 5 5 5 5 5
32 32 32 33 34 33 32 32 31 31 30 28 26 24 22 22 21 19 17 16 18 17 15 14 13 14 13 10 12 14 14 13 10 9 9 8 8 6 4 4 3 2 1 1 2 3 3 4 4 3 4 4 5 7 8 8 10 13 11 10 10 7 4 7 9 7 5 5 4 5 4 5 4 2 2 2 3 3 4 4 5 5 5 4 4
33 32 32 32 33 32 32 32 31 31 31 29 27 25 23 23 22 20 19 16 17 18 16 16 15 15 15 12 12 13 14 13 12 9 9 8 8 7 7 5 4 3 3 2 1 2 2 3 3 3 3 2 4 6 7 7 10 13 12 10 9 6 6 10 9 6 6 6 5 6 6 6 5 4 4 3 3 3 3 4 4 5 5 4 5
32 31 33 33 32 33 32 32 32 30 31 30 27 25 24 23 22 21 20 18 17 17 17 16 15 16 15 12 12 13 13 13 12 11 9 8 8 8 7 6 4 3 4 3 2 2 2 3 3 3 4 3 4 6 6 8 12 15 12 9 9 7 7 8 7 5 4 4 6 9 9 8 7 6 6 4 4 4 3 3 4 5 5 4 5
32 32 33 33 33 34 32 32 31 29 30 31 26 25 25 24 22 21 21 19 17 17 18 17 15 15 14 12 12 13 13 13 12 11 10 9 9 8 6 6 5 4 4 4 3 3 2 3 2 3 4 3 4 6 6 9 14 15 10 7 7 8 8 6 5 4 2 1 4 8 9 8 8 8 7 6 5 3 3 4 4 5 4 4 4
34 35 34 32 33 33 32 31 31 30 31 31 27 25 26 24 22 21 20 19 18 18 19 19 16 15 13 11 12 14 14 14 13 12 12 11 11 9 7 6 5 4 4 4 4 4 3 2 2 2 3 3 3 5 6 8 12 11 7 6 7 9 10 6 5 3 1 2 3 5 6 6 7 7 8 7 6 3 2 4 5 5 4 4 3
34 35 34 34 35 34 32 32 31 30 32 32 28 26 26 25 24 23 22 21 19 19 18 19 18 15 13 11 11 13 14 14 13 13 12 12 12 10 8 7 5 4 3 3 4 4 3 2 2 2 3 4 4 7 9 10 9 6 6 8 9 10 11 10 7 2 2 3 4 4 4 4 5 6 6 6 6 4 1 2 4 5 5 5 4
35 35 35 36 37 35 35 35 32 30 34 35 31 30 30 28 27 26 26 24 22 21 19 19 19 16 14 12 11 12 14 14 13 13 13 13 13 11 9 8 6 4 3 4 4 4 4 3 3 2 3 4 6 10 12 10 8 7 8 9 10 9 10 12 9 5 5 5 3 4 4 3 4 4 4 5 6 5 1 2 3 4 5 5 5
37 36 37 39 38 37 36 35 33 31 35 37 35 34 33 31 30 29 28 26 23 24 22 19 19 18 16 15 13 12 13 14 13 12 13 13 14 13 11 8 6 5 5 4 4 5 5 4 4 4 5 6 7 10 11 10 9 10 9 9 9 9 11 14 11 9 8 6 6 6 4 4 4 4 3 4 6 6 4 3 2 2 4 4 4
39 38 38 38 38 38 38 37 35 33 34 37 37 35 34 32 30 29 28 27 24 24 23 20 18 19 20 18 16 14 12 14 14 13 12 13 14 13 11 8 7 6 5 4 4 6 6 5 5 5 6 7 8 10 11 11 11 11 10 8 9 10 13 14 13 12 10 7 10 10 7 5 3 3 3 2 4 5 5 4 2 2 3 3 2
40 40 39 39 38 39 39 39 38 36 34 36 37 35 33 31 29 28 27 25 23 22 24 23 20 19 20 19 19 17 14 14 14 14 13 13 14 14 12 9 8 6 5 5 5 6 6 6 6 5 6 7 8 9 11 11 11 12 12 9 8 9 11 14 14 12 12 9 11 13 11 8 4 4 4 1 2 3 4 4 3 3 2 2 2
42 42 41 41 40 38 38 40 40 38 35 35 36 35 34 30 28 28 25 22 20 20 24 26 24 21 20 20 20 19 16 14 15 15 14 13 14 14 13 11 10 7 5 6 6 6 6 6 6 6 7 7 7 9 11 11 8 10 13 10 9 9 8 12 13 10 10 12 13 14 12 8 6 8 7 4 0 2 4 4 3 3 3 2 2
43 43 43 42 42 39 38 39 40 40 37 34 34 35 35 33 30 30 29 26 23 22 24 27 27 25 23 22 21 21 18 14 15 15 14 14 14 14 13 12 11 9 7 7 7 6 6 6 7 7 8 7 8 10 12 11 7 8 13 11 8 8 7 11 13 10 8 11 15 17 12 7 6 7 8 7 4 4 4 4 3 3 5 4 2
43 43 43 43 43 41 40 39 40 40 38 36 34 35 36 35 33 32 32 30 27 25 24 24 25 25 25 24 23 22 18 14 15 16 15 15 14 14 14 12 11 10 8 8 7 6 6 6 7 8 8 8 9 11 12 11 9 9 13 11 9 8 8 10 12 10 9 12 17 18 11 8 8 7 8 10 8 6 5 5 4 5 6 5 3
43 42 43 43 44 44 43 42 42 41 40 38 36 36 38 37 35 33 33 31 29 27 24 22 22 24 26 26 25 23 19 15 15 16 16 16 15 15 15 13 11 10 9 9 8 7 7 8 8 9 9 9 9 10 11 11 8 8 11 13 12 10 8 9 9 9 12 17 18 16 12 9 8 6 6 8 7 7 8 8 5 7 7 5 4
43 43 43 43 44 46 46 45 44 43 42 40 37 37 37 38 37 35 34 32 31 28 25 23 22 23 25 26 25 23 20 17 15 17 17 16 16 15 15 15 13 11 10 9 9 8 9 9 10 10 9 9 9 11 12 11 8 6 9 15 16 12 10 11 9 8 12 16 16 14 14 12 9 6 5 6 7 8 11 9 5 6 6 6 5
43 43 43 43 43 45 46 46 46 45 44 42 40 38 38 38 38 37 36 34 33 31 28 26 24 24 25 25 26 25 22 19 17 17 17 17 16 16 16 16 14 12 11 10 10 10 9 10 10 10 9 9 10 11 12 11 10 7 6 13 19 16 13 13 11 8 11 15 15 13 14 14 11 7 6 6 8 11 13 10 5 6 7 6 6
42 42 42 43 43 44 46 46 47 46 45 43 41 39 38 38 38 37 36 36 35 34 32 30 27 26 26 25 26 26 24 21 18 17 18 18 17 16 16 16 15 14 13 12 12 11 10 11 11 11 10 10 10 11 12 12 12 9 6 12 19 17 15 15 12 10 12 15 16 13 12 13 12 9 8 8 8 11 14 12 8 8 7 7 7
Wind_Direction
144 141 137 136 134 133 131 130 132 131 130 129 129 127 122 117 112 109 108 108 108 108 108 107 106 104 104 105 106 108 109 111 111 112 112 113 114 114 114 113 111 107 103 101 102 101 101 101 100 97 94 92 95 99 98 97 100 104 106 110 117 121 120 116 113 110 107 106 106 109 112 114 116 116 115 116 115 113 112 110 109 108 107 105 107
143 143 139 138 136 135 134 135 134 132 130 129 128 125 120 115 112 111 110 108 108 109 109 108 107 106 106 106 106 107 108 109 110 111 111 112 111 111 110 107 105 102 100 99 100 101 102 103 101 98 95 91 91 96 99 96 97 104 109 111 115 114 110 107 107 106 105 103 103 105 110 113 114 113 112 114 111 110 110 107 109 108 106 106 108
144 143 141 141 139 136 136 136 134 132 131 129 127 124 119 116 114 112 110 110 110 111 110 109 109 109 108 108 107 107 108 109 108 109 108 109 108 108 107 105 103 100 100 100 100 101 103 103 102 100 96 91 90 93 98 98 97 102 107 112 113 110 107 105 104 103 103 103 102 103 107 110 111 109 107 110 110 112 111 108 109 108 108 109 111
146 144 143 143 141 138 138 136 134 133 131 131 129 123 120 118 116 113 111 111 111 111 111 110 110 109 108 108 108 109 109 109 108 107 106 106 105 105 105 104 102 100 100 101 102 103 103 103 102 102 98 92 91 93 98 100 99 102 107 111 110 107 106 106 104 102 102 103 104 104 106 108 109 103 98 106 112 113 113 111 111 110 112 113 113
145 144 144 143 141 138 137 135 135 134 134 134 129 124 121 119 117 114 113 111 112 111 110 109 108 108 108 108 108 109 108 107 105 104 105 104 103 102 102 100 98 98 99 99 100 103 104 104 103 102 99 95 93 93 97 102 102 104 109 110 110 108 107 108 106 103 102 103 104 103 101 104 106 101 95 101 109 111 113 115 114 113 114 114 115
145 143 143 142 140 138 137 137 137 136 136 134 128 126 123 121 118 115 114 113 113 111 109 107 106 107 106 107 107 108 106 105 104 104 105 102 101 100 100 98 97 97 97 96 98 102 105 104 103 101 99 97 95 93 95 102 104 106 109 110 111 111 110 109 107 102 101 102 101 99 98 98 100 100 97 97 102 107 111 114 116 117 115 115 117
145 143 143 143 141 140 139 138 139 138 137 134 129 127 124 122 119 116 116 115 114 110 108 106 106 106 105 106 106 106 105 104 104 105 104 101 101 100 100 99 97 97 95 95 97 100 103 103 101 101 100 99 97 95 95 102 107 108 109 109 109 112 112 109 105 101 100 101 100 100 98 97 97 99 101 97 97 104 109 113 116 117 117 119 120
147 145 145 144 143 142 140 142 141 140 137 134 130 127 125 122 119 118 117 115 112 109 107 106 106 106 106 106 106 105 104 104 103 103 102 101 100 99 100 99 97 96 95 94 95 96 97 99 99 100 100 100 98 96 97 103 109 110 108 106 105 109 110 107 104 105 105 103 103 104 102 100 97 97 103 103 98 100 106 111 116 117 119 122 120
149 147 147 144 144 142 142 145 142 141 138 134 131 128 126 122 121 119 117 115 111 109 107 105 105 105 105 105 105 105 103 102 101 102 101 100 99 99 99 99 99 97 96 94 94 93 94 96 97 98 100 102 101 99 99 103 108 110 109 106 105 109 112 111 108 109 109 105 103 105 105 104 100 97 101 106 104 101 103 108 116 118 119 120 117
150 148 148 146 144 143 144 145 143 142 138 135 131 129 127 123 122 119 117 114 111 109 107 105 104 103 104 103 104 103 102 102 101 101 100 100 99 99 99 100 100 99 98 96 95 94 94 97 97 99 101 103 104 102 101 103 106 107 107 105 107 111 116 116 113 110 107 105 104 105 106 107 103 100 102 105 105 104 105 109 114 116 118 119 116
152 151 150 148 145 145 146 145 144 143 139 136 132 130 128 126 122 120 117 113 111 109 107 105 103 102 103 103 104 104 103 103 103 102 101 100 99 99 99 100 101 100 99 96 96 96 95 96 97 100 101 103 105 106 103 103 106 108 107 106 108 110 115 116 113 110 108 108 107 106 107 107 105 105 106 105 104 105 109 113 115 116 118 119 116
154 154 152 150 147 148 147 146 146 144 141 137 133 131 130 128 124 121 117 113 112 109 107 103 102 102 102 104 105 105 105 104 104 103 102 101 100 99 97 97 98 99 99 98 98 97 96 95 96 99 101 103 106 109 108 105 108 110 110 108 108 107 110 113 111 109 110 110 108 108 108 107 106 107 110 109 108 108 111 115 119 122 123 121 117
156 155 154 152 150 151 149 148 149 145 142 138 134 132 131 130 126 123 119 115 113 109 107 103 102 102 103 105 106 107 107 106 106 104 103 102 101 100 98 96 95 95 97 98 99 98 97 96 95 96 99 102 105 109 112 108 107 110 111 109 106 105 107 109 109 110 112 113 110 108 108 107 106 106 109 111 112 114 113 114 116 119 119 119 119
158 158 156 154 152 152 151 150 150 146 143 139 135 134 133 132 129 126 122 118 114 110 108 104 102 102 104 105 106 107 106 107 106 106 104 102 102 100 99 97 95 94 94 95 96 96 95 93 93 94 95 99 103 108 113 111 108 108 109 111 108 105 106 107 108 112 115 116 113 110 109 106 104 105 106 107 110 112 114 114 114 116 114 114 115
159 159 158 156 154 153 153 153 151 147 143 140 137 136 135 133 132 129 126 121 115 111 108 104 103 103 105 105 105 105 104 104 104 104 103 101 100 98 97 95 95 93 92 93 92 93 91 91 90 91 93 96 101 106 112 113 110 108 109 114 111 105 103 102 104 109 114 117 117 116 115 109 106 108 108 108 107 108 110 110 112 113 112 112 111
160 160 160 157 155 154 154 154 152 149 144 140 138 138 137 134 133 132 129 123 117 112 107 105 103 103 106 106 105 104 102 101 100 100 98 97 96 95 95 93 92 90 90 90 90 91 90 91 90 91 92 94 98 103 110 113 113 112 110 111 108 103 102 101 100 102 109 117 120 120 120 115 111 110 110 110 108 106 106 105 106 107 107 110 111
163 162 161 159 158 156 156 156 153 149 145 140 139 140 138 134 133 134 130 124 119 112 108 106 104 105 108 109 107 105 102 100 97 96 94 94 93 93 94 93 92 89 89 89 90 91 90 91 90 91 92 93 95 99 109 114 118 117 112 111 108 101 100 102 102 102 106 115 120 123 123 119 116 112 111 110 108 106 103 103 102 102 103 105 109
164 163 162 162 160 159 158 157 155 150 146 143 142 141 137 134 133 133 129 124 120 115 112 108 106 108 111 113 112 108 105 101 97 95 93 92 92 92 93 92 91 89 89 90 91 92 92 91 88 89 91 94 95 97 106 114 119 117 114 115 109 98 94 96 100 99 102 109 114 120 123 121 121 117 113 109 106 105 103 103 103 102 104 104 104
164 165 165 164 163 162 162 160 157 152 149 147 144 143 138 133 132 131 127 123 121 118 115 112 110 110 112 116 115 113 109 105 101 96 93 92 92 93 94 93 92 91 90 91 94 95 94 93 90 88 88 93 96 97 100 109 116 114 115 118 112 102 96 95 97 93 94 104 110 115 119 121 123 120 118 114 108 106 103 101 102 104 106 107 104
166 167 166 166 168 167 165 162 159 154 152 151 147 145 139 135 133 129 125 123 122 119 118 117 115 112 112 115 116 116 113 107 102 98 95 94 93 94 96 97 96 96 95 96 97 97 96 94 91 87 87 90 94 97 97 100 110 115 117 116 116 109 100 97 94 88 90 101 109 112 117 121 124 122 119 116 112 110 107 103 102 104 107 109 109
168 169 168 170 171 171 168 164 161 158 157 156 153 149 143 139 136 128 123 122 121 120 121 121 119 117 115 114 115 115 113 106 100 99 98 95 94 94 97 99 100 100 99 98 95 93 93 94 90 85 86 89 91 96 101 102 106 115 116 110 111 107 100 91 81 86 90 97 112 116 117 123 125 123 120 117 116 115 115 113 110 109 109 111 112
169 170 172 174 174 173 171 166 163 162 163 162 160 156 150 145 141 133 124 121 121 121 123 122 121 120 116 115 114 110 109 105 101 99 97 97 98 98 100 99 99 98 96 92 88 89 90 91 91 89 90 92 92 92 99 104 104 104 103 105 107 100 92 79 74 87 92 96 116 122 117 124 125 122 121 119 120 121 123 123 119 115 113 113 113
169 171 174 177 176 175 173 169 167 166 168 168 167 163 157 152 148 142 131 123 120 122 123 121 123 121 118 117 112 107 104 102 102 101 97 99 102 104 106 103 101 95 91 89 88 89 89 89 93 97 97 96 94 91 93 98 97 91 88 94 92 81 68 61 71 85 89 99 119 125 120 123 124 120 121 124 125 130 134 128 123 118 113 111 111
170 172 174 178 178 177 174 171 171 171 172 173 172 169 165 161 158 153 142 129 121 123 125 123 126 124 120 118 113 109 106 103 102 103 101 98 99 106 111 109 106 98 93 91 87 87 87 89 95 103 106 103 98 94 92 91 89 84 83 86 79 71 58 50 62 79 84 97 115 124 124 122 123 123 122 126 128 134 140 133 125 118 112 108 107
170 170 173 179 179 178 174 173 176 174 176 178 178 176 172 170 167 164 153 138 127 127 129 130 134 131 126 120 118 115 110 110 108 111 109 100 100 105 110 110 108 102 100 93 84 81 80 87 97 103 110 110 104 98 96 96 92 83 84 85 75 71 57 46 55 73 80 89 104 117 125 128 128 130 129 130 131 131 137 135 128 120 116 112 107
169 168 174 179 178 179 175 177 180 176 180 182 182 182 180 178 174 170 159 148 138 135 136 139 140 138 134 124 121 117 111 114 117 119 111 102 104 107 108 109 110 106 102 93 84 81 80 91 100 104 110 112 112 108 102 101 101 94 99 96 76 73 58 44 52 66 76 82 93 108 121 133 134 136 138 139 137 134 134 133 130 125 121 118 113
171 170 176 180 177 177 177 181 182 178 182 183 183 186 185 183 177 173 163 154 146 145 147 142 143 140 137 130 123 120 114 117 123 120 111 106 104 105 102 100 102 99 94 87 81 83 83 91 99 97 99 109 117 120 115 107 105 104 122 124 88 81 58 39 50 63 73 78 81 99 118 135 141 143 146 146 144 138 133 130 132 132 128 124 121
172 173 179 181 177 178 179 184 185 182 185 184 182 185 185 183 179 174 167 161 154 156 154 144 146 144 141 137 128 128 117 112 121 115 114 117 104 103 100 97 98 92 87 82 84 91 86 88 95 86 76 94 112 127 125 120 124 118 135 162 108 93 77 45 52 65 75 77 69 79 106 134 147 152 153 152 149 143 140 138 135 136 134 130 128
172 176 181 181 179 180 182 186 187 185 188 186 182 185 186 183 181 177 172 166 157 155 152 144 149 153 151 145 136 136 115 112 132 112 116 125 116 125 116 106 104 96 90 84 91 95 89 89 90 89 87 87 100 130 133 126 130 121 130 173 170 90 99 75 66 65 76 74 60 71 89 127 155 158 158 157 156 150 150 152 149 150 146 141 139
175 178 182 183 180 182 185 187 189 188 189 189 184 184 187 185 182 179 174 165 154 153 154 149 156 162 164 151 146 157 139 138 158 133 139 145 132 151 134 112 105 95 92 83 87 86 86 88 81 88 96 92 94 126 138 130 132 123 126 165 219 226 153 122 103 79 86 69 44 66 91 103 167 168 162 161 166 162 162 166 164 168 165 157 156
179 179 182 185 181 185 189 188 190 190 190 192 187 183 188 189 184 181 174 169 166 163 167 177 181 176 175 164 155 165 165 158 167 168 184 183 160 172 147 114 105 94 87 79 88 89 83 78 75 77 84 94 98 119 136 134 136 133 131 143 205 220 210 177 135 100 100 68 43 56 85 93 117 170 165 166 174 173 174 177 175 177 177 176 177
182 181 183 184 182 187 191 191 192 192 191 192 191 183 185 189 186 186 178 176 177 172 183 192 191 177 170 174 170 169 167 169 177 185 195 185 161 165 153 112 107 104 81 73 92 99 85 68 71 87 94 96 90 114 132 137 141 133 129 128 154 209 213 210 191 156 112 79 54 51 71 94 105 135 164 169 178 182 183 186 185 186 186 187 191
182 183 183 183 184 188 191 193 193 193 192 192 193 184 182 186 188 193 185 181 178 176 191 191 183 181 172 175 182 182 171 174 183 183 188 172 151 155 157 156 133 115 89 81 90 94 88 79 76 84 101 88 76 115 130 135 145 137 134 129 111 158 189 206 207 177 114 88 57 45 63 90 97 117 159 169 175 182 187 192 195 196 198 198 197
183 185 186 185 185 188 190 193 195 194 192 191 194 190 185 186 191 196 192 187 179 178 188 184 182 192 196 186 182 193 187 183 188 181 182 167 160 169 158 173 185 144 89 81 90 90 87 89 81 75 92 85 84 118 131 130 144 145 140 126 106 122 165 195 193 170 114 97 64 44 60 80 81 97 131 158 166 175 184 192 198 201 206 209 207
184 186 189 187 185 189 189 193 195 194 193 191 193 195 190 189 192 194 194 192 184 185 184 180 191 198 204 199 184 197 200 197 198 190 190 173 169 183 178 192 183 154 152 134 114 98 90 88 82 86 94 92 102 119 131 131 145 150 136 122 111 108 149 156 163 159 106 87 52 32 54 72 69 87 93 109 132 152 176 185 195 200 202 205 211
186 187 189 188 186 189 190 194 196 193 192 192 195 198 195 195 196 192 194 196 191 191 183 179 198 207 210 205 186 195 204 207 204 197 203 185 173 179 179 191 180 160 178 177 155 114 104 91 80 103 115 119 119 115 124 130 141 143 127 121 114 92 132 141 137 136 97 72 45 42 67 76 76 84 78 76 95 117 158 177 184 191 197 199 203
188 188 188 189 186 188 191 194 196 193 191 191 195 198 197 199 199 195 196 199 197 194 182 183 204 214 217 210 189 193 202 211 209 199 204 197 185 182 175 177 176 172 178 182 195 189 145 111 86 95 130 165 135 112 119 131 141 139 119 116 121 106 124 132 124 124 85 58 55 63 76 84 86 84 77 77 86 99 130 161 170 176 187 191 194
190 189 189 190 186 189 193 194 197 194 189 190 194 198 199 200 201 200 199 200 201 194 181 185 209 220 222 215 198 196 201 209 212 203 201 203 200 195 184 182 185 176 176 195 205 195 170 134 110 88 128 169 136 124 128 133 143 144 126 124 144 140 132 121 119 109 55 51 72 73 83 89 91 83 76 77 71 77 108 131 151 162 175 181 185
193 191 191 190 188 192 193 194 199 194 186 187 193 199 199 198 198 198 199 203 203 195 183 183 205 225 227 221 204 197 202 209 213 205 200 207 211 203 193 195 198 179 174 205 210 196 184 141 120 109 147 176 151 143 139 132 140 147 148 159 170 160 152 140 125 113 121 157 113 98 101 98 102 87 68 62 49 47 102 113 127 138 146 158 169
192 191 192 191 189 192 192 194 201 196 185 185 191 198 197 194 195 194 197 205 203 193 188 185 197 220 229 226 213 200 200 207 212 208 202 208 216 211 203 207 206 192 194 216 208 197 193 154 135 139 160 179 158 144 139 133 140 150 153 161 160 153 156 155 147 166 192 150 119 136 137 109 112 92 60 49 37 28 134 125 115 125 125 128 137
191 191 193 191 189 191 193 195 202 199 186 186 192 196 195 193 194 194 197 205 201 189 188 191 193 207 224 229 224 209 202 206 211 211 206 207 217 219 213 213 205 200 213 210 196 193 196 186 185 178 162 169 150 143 143 139 157 173 146 144 161 161 157 158 166 197 188 174 166 158 165 151 124 92 59 52 45 40 117 144 120 134 133 130 138
192 193 193 193 192 192 195 196 202 202 192 190 196 198 199 199 198 198 200 205 204 191 187 193 195 199 212 225 230 220 209 209 211 212 211 208 215 223 220 212 201 201 208 202 193 191 194 195 195 184 164 160 149 149 149 144 165 174 142 135 163 168 164 166 176 189 186 184 184 180 183 172 134 92 74 64 55 59 87 114 115 146 147 142 149
192 192 193 196 196 195 196 195 199 203 198 195 199 202 203 203 203 203 204 208 207 197 189 189 196 202 207 216 228 230 219 213 212 212 213 209 213 223 223 213 207 210 204 196 195 193 197 199 190 179 169 161 152 155 154 149 159 165 155 152 156 155 164 177 180 187 195 176 171 190 188 166 141 105 114 82 54 59 76 79 73 98 131 147 160
191 191 194 196 197 198 197 196 199 204 202 199 202 205 205 205 205 206 208 211 210 204 195 189 193 204 210 213 223 231 226 216 214 214 214 211 211 221 225 218 214 218 210 203 200 198 202 199 189 178 176 166 153 159 162 159 161 169 177 174 162 162 173 184 180 186 210 190 168 186 182 171 172 169 189 192 54 37 43 41 41 63 86 138 177
193 193 195 197 197 198 198 198 202 205 205 203 203 204 204 203 201 201 203 207 210 207 201 197 194 197 208 215 221 229 229 220 216 215 216 214 212 217 222 217 214 215 209 203 200 207 211 205 198 189 188 178 156 159 166 166 168 176 185 181 179 194 196 192 183 179 210 200 177 182 185 186 185 186 208 214 158 336 345 345 350 27 29 55 116
195 196 197 197 197 197 197 199 201 205 207 206 205 204 204 203 200 198 197 199 205 207 205 205 201 198 204 214 222 229 230 223 215 213 214 215 213 214 216 214 212 210 203 200 201 211 214 205 199 190 193 188 163 158 161 168 182 185 189 184 178 199 201 187 181 167 181 193 187 189 192 198 197 204 212 203 218 272 297 305 308 353 356 356 55
196 197 198 198 197 196 197 199 200 203 207 207 206 204 205 206 206 205 203 201 203 208 211 211 210 204 204 213 223 229 230 222 213 212 213 215 214 211 214 214 210 207 201 201 204 208 209 203 200 194 195 194 176 165 164 172 186 188 190 180 154 170 184 174 176 170 156 162 178 190 202 213 215 232 226 211 223 249 253 252 272 320 337 338 5
196 197 198 199 199 197 197 200 201 203 206 209 208 205 205 207 209 209 209 205 204 210 213 212 212 208 205 210 221 228 229 221 214 214 214 216 215 211 213 215 210 206 203 202 199 201 206 202 201 201 200 200 187 178 180 181 185 194 198 188 162 158 175 179 182 184 163 155 165 185 204 217 221 233 230 222 230 244 246 243 271 320 335 337 345
198 199 200 201 201 199 198 200 201 204 207 210 210 207 206 208 211 212 211 208 205 208 213 213 211 208 206 208 215 225 229 223 217 217 217 217 216 211 212 217 213 207 207 206 201 202 209 208 207 206 202 199 191 189 196 194 193 199 197 192 182 168 176 193 192 189 178 166 167 183 195 201 212 218 219 235 241 242 246 249 283 324 322 325 340
199 200 201 202 202 201 200 200 202 205 207 210 211 210 209 210 212 213 213 211 206 204 209 214 212 208 208 208 211 219 225 224 219 218 219 219 217 213 211 216 218 211 210 209 205 207 209 211 215 212 206 202 193 194 203 205 205 202 182 192 195 183 182 193 191 190 193 182 176 184 194 200 209 209 202 224 243 245 244 247 283 311 293 299 322
197 199 200 201 202 202 202 202 204 205 207 210 211 212 212 212 213 214 215 214 210 205 206 212 213 208 207 208 210 214 220 223 222 219 220 221 220 216 211 214 218 215 213 209 207 211 210 212 218 217 215 212 202 198 201 204 211 210 184 190 200 198 194 192 187 191 199 194 191 192 195 208 223 225 209 214 235 241 238 240 264 288 282 285 295